"Sample Date","Sample Time","Sample Value","Units","Flow Rate","Number Channels","Micron Size 0","Counts/Channel 0","Micron Size 1","Counts/Channel 1","Micron Size 2","Counts/Channel 2","Micron Size 3","Counts/Channel 3","Micron Size 4","Counts/Channel 4","Micron Size 5","Counts/Channel 5","Micron Size 6","Counts/Channel 6","Micron Size 7","Counts/Channel 7","Micron Size 8","Counts/Channel 8","Micron Size 9","Counts/Channel 9","Micron Size 10","Counts/Channel 10","Micron Size 11","Counts/Channel 11","Micron Size 12","Counts/Channel 12","Micron Size 13","Counts/Channel 13","Micron Size 14","Counts/Channel 14","Micron Size 15","Counts/Channel 15","Micron Size 16","Counts/Channel 16","Micron Size 17","Counts/Channel 17","Micron Size 18","Counts/Channel 18","Micron Size 19","Counts/Channel 19","Micron Size 20","Counts/Channel 20","Micron Size 21","Counts/Channel 21","Micron Size 22","Counts/Channel 22","Micron Size 23","Counts/Channel 23","Micron Size 24","Counts/Channel 24","Micron Size 25","Counts/Channel 25","Micron Size 26","Counts/Channel 26","Micron Size 27","Counts/Channel 27","Micron Size 28","Counts/Channel 28","Micron Size 29","Counts/Channel 29","Micron Size 30","Counts/Channel 30","Micron Size 31","Counts/Channel 31"
"05/07/08","20:00:01",642.000,"cc",28290.613,6,0.100,525.000,0.200,111.000,0.300,3.000,0.500,3.000,1.000,0,5.000,0
"05/07/08","20:00:07",616.000,"cc",28270.633,6,0.100,508.000,0.200,99.000,0.300,9.000,0.500,0,1.000,0,5.000,0
"05/07/08","20:00:13",649.000,"cc",28243.094,6,0.100,536.000,0.200,103.000,0.300,7.000,0.500,2.000,1.000,1.000,5.000,0
"05/07/08","20:00:19",621.000,"cc",28366.494,6,0.100,516.000,0.200,94.000,0.300,9.000,0.500,1.000,1.000,1.000,5.000,0
"05/07/08","20:00:25",629.000,"cc",28299.941,6,0.100,520.000,0.200,98.000,0.300,11.000,0.500,0,1.000,0,5.000,0
"05/07/08","20:00:31",634.000,"cc",28264.990,6,0.100,519.000,0.200,100.000,0.300,12.000,0.500,3.000,1.000,0,5.000,0
"05/07/08","20:00:37",564.000,"cc",28411.100,6,0.100,467.000,0.200,91.000,0.300,6.000,0.500,0,1.000,0,5.000,0
"05/07/08","20:00:43",627.000,"cc",28295.066,6,0.100,528.000,0.200,89.000,0.300,7.000,0.500,3.000,1.000,0,5.000,0
"05/07/08","20:00:49",649.000,"cc",28323.922,6,0.100,530.000,0.200,106.000,0.300,11.000,0.500,2.000,1.000,0,5.000,0
"05/07/08","20:00:55",625.000,"cc",28339.813,6,0.100,530.000,0.200,87.000,0.300,6.000,0.500,2.000,1.000,0,5.000,0
"05/07/08","20:01:01",648.000,"cc",28322.475,6,0.100,549.000,0.200,86.000,0.300,12.000,0.500,0,1.000,1.000,5.000,0
"05/07/08","20:01:07",630.000,"cc",28310.830,6,0.100,520.000,0.200,93.000,0.300,13.000,0.500,3.000,1.000,1.000,5.000,0
"05/07/08","20:01:13",613.000,"cc",28302.303,6,0.100,516.000,0.200,89.000,0.300,7.000,0.500,1.000,1.000,0,5.000,0
"05/07/08","20:01:19",637.000,"cc",28345.400,6,0.100,535.000,0.200,97.000,0.300,3.000,0.500,2.000,1.000,0,5.000,0
"05/07/08","20:01:25",621.000,"cc",28306.768,6,0.100,519.000,0.200,92.000,0.300,9.000,0.500,0,1.000,1.000,5.000,0
"05/07/08","20:01:31",697.000,"cc",28319.984,6,0.100,595.000,0.200,95.000,0.300,6.000,0.500,1.000,1.000,0,5.000,0
"05/07/08","20:01:37",763.000,"cc",28324.441,6,0.100,647.000,0.200,108.000,0.300,6.000,0.500,2.000,1.000,0,5.000,0
"05/07/08","20:01:43",709.000,"cc",28350.643,6,0.100,607.000,0.200,95.000,0.300,5.000,0.500,2.000,1.000,0,5.000,0
"05/07/08","20:01:49",682.000,"cc",28331.684,6,0.100,574.000,0.200,95.000,0.300,11.000,0.500,2.000,1.000,0,5.000,0
"05/07/08","20:01:55",883.000,"cc",28376.902,6,0.100,768.000,0.200,105.000,0.300,9.000,0.500,0,1.000,1.000,5.000,0
"05/07/08","20:02:01",915.000,"cc",28301.695,6,0.100,791.000,0.200,112.000,0.300,10.000,0.500,2.000,1.000,0,5.000,0
"05/07/08","20:02:07",728.000,"cc",28360.682,6,0.100,630.000,0.200,91.000,0.300,6.000,0.500,1.000,1.000,0,5.000,0
"05/07/08","20:02:13",850.000,"cc",28275.775,6,0.100,730.000,0.200,107.000,0.300,7.000,0.500,6.000,1.000,0,5.000,0
"05/07/08","20:02:19",1771.000,"cc",28216.045,6,0.100,1623.000,0.200,135.000,0.300,9.000,0.500,4.000,1.000,0,5.000,0
"05/07/08","20:02:25",1518.000,"cc",28314.340,6,0.100,1376.000,0.200,131.000,0.300,8.000,0.500,2.000,1.000,1.000,5.000,0
"05/07/08","20:02:31",1369.000,"cc",28348.496,6,0.100,1217.000,0.200,134.000,0.300,16.000,0.500,2.000,1.000,0,5.000,0
"05/07/08","20:02:37",1155.000,"cc",28296.840,6,0.100,922.000,0.200,203.000,0.300,25.000,0.500,4.000,1.000,1.000,5.000,0
"05/07/08","20:02:43",1111.000,"cc",28313.746,6,0.100,909.000,0.200,175.000,0.300,22.000,0.500,3.000,1.000,2.000,5.000,0
"05/07/08","20:02:49",1150.000,"cc",28351.522,6,0.100,1002.000,0.200,134.000,0.300,11.000,0.500,2.000,1.000,1.000,5.000,0
"05/07/08","20:02:55",1065.000,"cc",28376.160,6,0.100,943.000,0.200,108.000,0.300,13.000,0.500,1.000,1.000,0,5.000,0
"05/07/08","20:03:01",1103.000,"cc",28223.738,6,0.100,960.000,0.200,127.000,0.300,15.000,0.500,1.000,1.000,0,5.000,0
"05/07/08","20:03:07",994.000,"cc",28333.475,6,0.100,840.000,0.200,140.000,0.300,10.000,0.500,4.000,1.000,0,5.000,0
"05/07/08","20:03:13",888.000,"cc",28338.354,6,0.100,736.000,0.200,141.000,0.300,7.000,0.500,3.000,1.000,1.000,5.000,0
"05/07/08","20:03:19",1069.000,"cc",28316.949,6,0.100,928.000,0.200,128.000,0.300,9.000,0.500,3.000,1.000,1.000,5.000,0
"05/07/08","20:03:25",1225.000,"cc",28271.787,6,0.100,1082.000,0.200,119.000,0.300,20.000,0.500,4.000,1.000,0,5.000,0
"05/07/08","20:03:31",1198.000,"cc",28394.820,6,0.100,1040.000,0.200,141.000,0.300,13.000,0.500,3.000,1.000,1.000,5.000,0
"05/07/08","20:03:37",1471.000,"cc",28336.295,6,0.100,1271.000,0.200,179.000,0.300,18.000,0.500,3.000,1.000,0,5.000,0
"05/07/08","20:03:43",1387.000,"cc",28276.791,6,0.100,1107.000,0.200,230.000,0.300,47.000,0.500,3.000,1.000,0,5.000,0
"05/07/08","20:03:49",1335.000,"cc",28280.482,6,0.100,1123.000,0.200,170.000,0.300,36.000,0.500,6.000,1.000,0,5.000,0
"05/07/08","20:03:55",1418.000,"cc",28348.715,6,0.100,1212.000,0.200,184.000,0.300,19.000,0.500,3.000,1.000,0,5.000,0
"05/07/08","20:04:01",987.000,"cc",28311.815,6,0.100,830.000,0.200,137.000,0.300,14.000,0.500,5.000,1.000,1.000,5.000,0
"05/07/08","20:04:07",734.000,"cc",28283.408,6,0.100,615.000,0.200,112.000,0.300,5.000,0.500,1.000,1.000,1.000,5.000,0
"05/07/08","20:04:13",789.000,"cc",28357.793,6,0.100,670.000,0.200,113.000,0.300,4.000,0.500,2.000,1.000,0,5.000,0
"05/07/08","20:04:19",715.000,"cc",28353.119,6,0.100,593.000,0.200,108.000,0.300,11.000,0.500,3.000,1.000,0,5.000,0
"05/07/08","20:04:25",707.000,"cc",28321.992,6,0.100,609.000,0.200,86.000,0.300,9.000,0.500,3.000,1.000,0,5.000,0
"05/07/08","20:04:31",785.000,"cc",28313.783,6,0.100,660.000,0.200,111.000,0.300,11.000,0.500,3.000,1.000,0,5.000,0
"05/07/08","20:04:37",866.000,"cc",28258.227,6,0.100,739.000,0.200,115.000,0.300,11.000,0.500,1.000,1.000,0,5.000,0
"05/07/08","20:04:43",742.000,"cc",28325.174,6,0.100,632.000,0.200,104.000,0.300,6.000,0.500,0,1.000,0,5.000,0
"05/07/08","20:04:49",706.000,"cc",28338.207,6,0.100,598.000,0.200,94.000,0.300,11.000,0.500,3.000,1.000,0,5.000,0
"05/07/08","20:04:55",631.000,"cc",28241.014,6,0.100,541.000,0.200,88.000,0.300,2.000,0.500,0,1.000,0,5.000,0
"05/07/08","20:05:01",716.000,"cc",28316.100,6,0.100,590.000,0.200,119.000,0.300,6.000,0.500,1.000,1.000,0,5.000,0
"05/07/08","20:05:07",695.000,"cc",28353.773,6,0.100,577.000,0.200,108.000,0.300,7.000,0.500,3.000,1.000,0,5.000,0
"05/07/08","20:05:13",708.000,"cc",28369.906,6,0.100,586.000,0.200,105.000,0.300,15.000,0.500,2.000,1.000,0,5.000,0
"05/07/08","20:05:19",694.000,"cc",28315.902,6,0.100,569.000,0.200,116.000,0.300,8.000,0.500,1.000,1.000,0,5.000,0
"05/07/08","20:05:25",705.000,"cc",28328.330,6,0.100,578.000,0.200,107.000,0.300,17.000,0.500,3.000,1.000,0,5.000,0
"05/07/08","20:05:31",719.000,"cc",28299.322,6,0.100,601.000,0.200,104.000,0.300,10.000,0.500,4.000,1.000,0,5.000,0
"05/07/08","20:05:37",778.000,"cc",28336.119,6,0.100,644.000,0.200,120.000,0.300,12.000,0.500,2.000,1.000,0,5.000,0
"05/07/08","20:05:43",790.000,"cc",28306.834,6,0.100,655.000,0.200,122.000,0.300,10.000,0.500,3.000,1.000,0,5.000,0
"05/07/08","20:05:49",717.000,"cc",28308.906,6,0.100,590.000,0.200,111.000,0.300,12.000,0.500,4.000,1.000,0,5.000,0
"05/07/08","20:05:55",770.000,"cc",28294.947,6,0.100,611.000,0.200,142.000,0.300,11.000,0.500,6.000,1.000,0,5.000,0
"05/07/08","20:06:01",849.000,"cc",28307.566,6,0.100,688.000,0.200,141.000,0.300,16.000,0.500,3.000,1.000,1.000,5.000,0
"05/07/08","20:06:07",806.000,"cc",28351.400,6,0.100,654.000,0.200,133.000,0.300,15.000,0.500,3.000,1.000,1.000,5.000,0
"05/07/08","20:06:13",820.000,"cc",28309.883,6,0.100,663.000,0.200,130.000,0.300,24.000,0.500,2.000,1.000,1.000,5.000,0
"05/07/08","20:06:19",807.000,"cc",28342.445,6,0.100,653.000,0.200,141.000,0.300,10.000,0.500,2.000,1.000,1.000,5.000,0
"05/07/08","20:06:25",814.000,"cc",28390.654,6,0.100,649.000,0.200,144.000,0.300,18.000,0.500,3.000,1.000,0,5.000,0
"05/07/08","20:06:31",804.000,"cc",28301.783,6,0.100,661.000,0.200,128.000,0.300,11.000,0.500,3.000,1.000,1.000,5.000,0
"05/07/08","20:06:37",749.000,"cc",28348.871,6,0.100,598.000,0.200,134.000,0.300,13.000,0.500,3.000,1.000,1.000,5.000,0
"05/07/08","20:06:43",818.000,"cc",28287.758,6,0.100,664.000,0.200,133.000,0.300,18.000,0.500,2.000,1.000,1.000,5.000,0
"05/07/08","20:06:49",813.000,"cc",28318.188,6,0.100,655.000,0.200,132.000,0.300,21.000,0.500,5.000,1.000,0,5.000,0
"05/07/08","20:06:55",796.000,"cc",28334.430,6,0.100,638.000,0.200,138.000,0.300,17.000,0.500,3.000,1.000,0,5.000,0
"05/07/08","20:07:01",831.000,"cc",28293.443,6,0.100,678.000,0.200,139.000,0.300,10.000,0.500,4.000,1.000,0,5.000,0
"05/07/08","20:07:07",780.000,"cc",28346.904,6,0.100,650.000,0.200,111.000,0.300,16.000,0.500,2.000,1.000,1.000,5.000,0
"05/07/08","20:07:13",845.000,"cc",28345.932,6,0.100,680.000,0.200,139.000,0.300,22.000,0.500,4.000,1.000,0,5.000,0
"05/07/08","20:07:19",808.000,"cc",28341.342,6,0.100,654.000,0.200,134.000,0.300,16.000,0.500,2.000,1.000,2.000,5.000,0
"05/07/08","20:07:25",800.000,"cc",28364.156,6,0.100,641.000,0.200,133.000,0.300,23.000,0.500,3.000,1.000,0,5.000,0
"05/07/08","20:07:31",781.000,"cc",28349.979,6,0.100,631.000,0.200,136.000,0.300,13.000,0.500,1.000,1.000,0,5.000,0
"05/07/08","20:07:37",817.000,"cc",28293.525,6,0.100,658.000,0.200,143.000,0.300,12.000,0.500,3.000,1.000,1.000,5.000,0
"05/07/08","20:07:43",767.000,"cc",28291.986,6,0.100,635.000,0.200,112.000,0.300,16.000,0.500,2.000,1.000,2.000,5.000,0
"05/07/08","20:07:49",811.000,"cc",28292.303,6,0.100,671.000,0.200,125.000,0.300,12.000,0.500,3.000,1.000,0,5.000,0
"05/07/08","20:07:55",811.000,"cc",28309.537,6,0.100,657.000,0.200,140.000,0.300,13.000,0.500,0,1.000,1.000,5.000,0
"05/07/08","20:08:01",739.000,"cc",28326.766,6,0.100,608.000,0.200,111.000,0.300,15.000,0.500,5.000,1.000,0,5.000,0
"05/07/08","20:08:07",783.000,"cc",28337.705,6,0.100,624.000,0.200,140.000,0.300,15.000,0.500,4.000,1.000,0,5.000,0
"05/07/08","20:08:13",808.000,"cc",28315.170,6,0.100,664.000,0.200,137.000,0.300,6.000,0.500,1.000,1.000,0,5.000,0
"05/07/08","20:08:19",741.000,"cc",28352.440,6,0.100,623.000,0.200,105.000,0.300,12.000,0.500,1.000,1.000,0,5.000,0
"05/07/08","20:08:25",744.000,"cc",28277.606,6,0.100,611.000,0.200,116.000,0.300,13.000,0.500,4.000,1.000,0,5.000,0
"05/07/08","20:08:31",747.000,"cc",28322.139,6,0.100,606.000,0.200,129.000,0.300,11.000,0.500,1.000,1.000,0,5.000,0
"05/07/08","20:08:37",784.000,"cc",28332.311,6,0.100,652.000,0.200,124.000,0.300,6.000,0.500,2.000,1.000,0,5.000,0
"05/07/08","20:08:43",751.000,"cc",28330.289,6,0.100,599.000,0.200,140.000,0.300,4.000,0.500,8.000,1.000,0,5.000,0
"05/07/08","20:08:49",805.000,"cc",28316.783,6,0.100,647.000,0.200,144.000,0.300,9.000,0.500,2.000,1.000,3.000,5.000,0
"05/07/08","20:08:55",744.000,"cc",28264.940,6,0.100,606.000,0.200,125.000,0.300,8.000,0.500,4.000,1.000,1.000,5.000,0
"05/07/08","20:09:01",793.000,"cc",28314.119,6,0.100,639.000,0.200,128.000,0.300,20.000,0.500,6.000,1.000,0,5.000,0
"05/07/08","20:09:07",785.000,"cc",28329.295,6,0.100,658.000,0.200,112.000,0.300,10.000,0.500,5.000,1.000,0,5.000,0
"05/07/08","20:09:13",755.000,"cc",28323.281,6,0.100,626.000,0.200,111.000,0.300,18.000,0.500,0,1.000,0,5.000,0
"05/07/08","20:09:19",744.000,"cc",28260.533,6,0.100,612.000,0.200,122.000,0.300,10.000,0.500,0,1.000,0,5.000,0
"05/07/08","20:09:25",755.000,"cc",28328.148,6,0.100,627.000,0.200,114.000,0.300,12.000,0.500,2.000,1.000,0,5.000,0
"05/07/08","20:09:31",717.000,"cc",28388.824,6,0.100,585.000,0.200,121.000,0.300,7.000,0.500,3.000,1.000,1.000,5.000,0
"05/07/08","20:09:37",689.000,"cc",28262.529,6,0.100,569.000,0.200,113.000,0.300,5.000,0.500,1.000,1.000,1.000,5.000,0
"05/07/08","20:09:43",717.000,"cc",28319.361,6,0.100,586.000,0.200,116.000,0.300,12.000,0.500,3.000,1.000,0,5.000,0
"05/07/08","20:09:49",683.000,"cc",28287.006,6,0.100,554.000,0.200,118.000,0.300,10.000,0.500,0,1.000,1.000,5.000,0
"05/07/08","20:09:55",731.000,"cc",28272.236,6,0.100,616.000,0.200,97.000,0.300,16.000,0.500,2.000,1.000,0,5.000,0
"05/07/08","20:10:01",744.000,"cc",28308.133,6,0.100,604.000,0.200,124.000,0.300,14.000,0.500,2.000,1.000,0,5.000,0
"05/07/08","20:10:07",710.000,"cc",28291.133,6,0.100,591.000,0.200,100.000,0.300,13.000,0.500,6.000,1.000,0,5.000,0
"05/07/08","20:10:13",657.000,"cc",28343.857,6,0.100,541.000,0.200,106.000,0.300,9.000,0.500,1.000,1.000,0,5.000,0
"05/07/08","20:10:19",712.000,"cc",28303.506,6,0.100,591.000,0.200,105.000,0.300,13.000,0.500,3.000,1.000,0,5.000,0
"05/07/08","20:10:25",697.000,"cc",28372.410,6,0.100,564.000,0.200,119.000,0.300,11.000,0.500,3.000,1.000,0,5.000,0
"05/07/08","20:10:31",690.000,"cc",28312.127,6,0.100,561.000,0.200,112.000,0.300,16.000,0.500,1.000,1.000,0,5.000,0
"05/07/08","20:10:37",693.000,"cc",28284.510,6,0.100,563.000,0.200,115.000,0.300,12.000,0.500,2.000,1.000,1.000,5.000,0
"05/07/08","20:10:43",748.000,"cc",28292.479,6,0.100,606.000,0.200,130.000,0.300,11.000,0.500,1.000,1.000,0,5.000,0
"05/07/08","20:10:49",667.000,"cc",28297.529,6,0.100,554.000,0.200,99.000,0.300,9.000,0.500,4.000,1.000,1.000,5.000,0
"05/07/08","20:10:55",698.000,"cc",28316.557,6,0.100,561.000,0.200,122.000,0.300,11.000,0.500,4.000,1.000,0,5.000,0
"05/07/08","20:11:01",696.000,"cc",28340.727,6,0.100,589.000,0.200,97.000,0.300,8.000,0.500,2.000,1.000,0,5.000,0
"05/07/08","20:11:07",687.000,"cc",28378.455,6,0.100,561.000,0.200,117.000,0.300,9.000,0.500,0,1.000,0,5.000,0
"05/07/08","20:11:13",645.000,"cc",28258.834,6,0.100,533.000,0.200,94.000,0.300,16.000,0.500,1.000,1.000,1.000,5.000,0
"05/07/08","20:11:19",689.000,"cc",28305.010,6,0.100,559.000,0.200,106.000,0.300,17.000,0.500,6.000,1.000,1.000,5.000,0
"05/07/08","20:11:25",642.000,"cc",28296.307,6,0.100,518.000,0.200,109.000,0.300,13.000,0.500,2.000,1.000,0,5.000,0
"05/07/08","20:11:31",664.000,"cc",28351.705,6,0.100,525.000,0.200,120.000,0.300,10.000,0.500,8.000,1.000,1.000,5.000,0
"05/07/08","20:11:37",645.000,"cc",28304.604,6,0.100,532.000,0.200,91.000,0.300,18.000,0.500,4.000,1.000,0,5.000,0
"05/07/08","20:11:43",675.000,"cc",28313.033,6,0.100,544.000,0.200,116.000,0.300,10.000,0.500,5.000,1.000,0,5.000,0
"05/07/08","20:11:49",687.000,"cc",28321.971,6,0.100,554.000,0.200,117.000,0.300,13.000,0.500,3.000,1.000,0,5.000,0
"05/07/08","20:11:55",695.000,"cc",28354.887,6,0.100,555.000,0.200,122.000,0.300,15.000,0.500,3.000,1.000,0,5.000,0
"05/07/08","20:12:01",664.000,"cc",28288.807,6,0.100,544.000,0.200,107.000,0.300,10.000,0.500,3.000,1.000,0,5.000,0
"05/07/08","20:12:07",677.000,"cc",28317.270,6,0.100,568.000,0.200,96.000,0.300,12.000,0.500,0,1.000,1.000,5.000,0
"05/07/08","20:12:13",614.000,"cc",28318.688,6,0.100,505.000,0.200,93.000,0.300,12.000,0.500,4.000,1.000,0,5.000,0
"05/07/08","20:12:19",672.000,"cc",28304.809,6,0.100,566.000,0.200,95.000,0.300,8.000,0.500,3.000,1.000,0,5.000,0
"05/07/08","20:12:25",660.000,"cc",28260.791,6,0.100,543.000,0.200,101.000,0.300,11.000,0.500,4.000,1.000,1.000,5.000,0
"05/07/08","20:12:31",693.000,"cc",28269.977,6,0.100,585.000,0.200,89.000,0.300,15.000,0.500,3.000,1.000,1.000,5.000,0
"05/07/08","20:12:37",680.000,"cc",28339.365,6,0.100,574.000,0.200,98.000,0.300,6.000,0.500,2.000,1.000,0,5.000,0
"05/07/08","20:12:43",684.000,"cc",28336.756,6,0.100,568.000,0.200,106.000,0.300,6.000,0.500,3.000,1.000,1.000,5.000,0
"05/07/08","20:12:49",688.000,"cc",28377.340,6,0.100,588.000,0.200,85.000,0.300,7.000,0.500,7.000,1.000,1.000,5.000,0
"05/07/08","20:12:55",651.000,"cc",28296.121,6,0.100,556.000,0.200,81.000,0.300,10.000,0.500,2.000,1.000,2.000,5.000,0
"05/07/08","20:13:01",672.000,"cc",28256.918,6,0.100,574.000,0.200,84.000,0.300,12.000,0.500,1.000,1.000,1.000,5.000,0
"05/07/08","20:13:07",631.000,"cc",28357.930,6,0.100,522.000,0.200,92.000,0.300,13.000,0.500,4.000,1.000,0,5.000,0
"05/07/08","20:13:13",634.000,"cc",28301.207,6,0.100,533.000,0.200,92.000,0.300,6.000,0.500,3.000,1.000,0,5.000,0
"05/07/08","20:13:19",673.000,"cc",28274.717,6,0.100,558.000,0.200,103.000,0.300,9.000,0.500,3.000,1.000,0,5.000,0
"05/07/08","20:13:25",643.000,"cc",28303.344,6,0.100,530.000,0.200,93.000,0.300,14.000,0.500,5.000,1.000,1.000,5.000,0
"05/07/08","20:13:31",633.000,"cc",28305.037,6,0.100,534.000,0.200,91.000,0.300,7.000,0.500,1.000,1.000,0,5.000,0
"05/07/08","20:13:37",659.000,"cc",28367.752,6,0.100,556.000,0.200,100.000,0.300,3.000,0.500,0,1.000,0,5.000,0
"05/07/08","20:13:43",658.000,"cc",28291.275,6,0.100,544.000,0.200,104.000,0.300,8.000,0.500,2.000,1.000,0,5.000,0
"05/07/08","20:13:49",659.000,"cc",28330.326,6,0.100,549.000,0.200,100.000,0.300,8.000,0.500,2.000,1.000,0,5.000,0
"05/07/08","20:13:55",644.000,"cc",28346.801,6,0.100,537.000,0.200,98.000,0.300,6.000,0.500,2.000,1.000,1.000,5.000,0
"05/07/08","20:14:01",655.000,"cc",28306.713,6,0.100,532.000,0.200,113.000,0.300,5.000,0.500,4.000,1.000,1.000,5.000,0
"05/07/08","20:14:07",642.000,"cc",28269.315,6,0.100,535.000,0.200,92.000,0.300,9.000,0.500,5.000,1.000,1.000,5.000,0
"05/07/08","20:14:13",667.000,"cc",28364.770,6,0.100,557.000,0.200,91.000,0.300,17.000,0.500,2.000,1.000,0,5.000,0
"05/07/08","20:14:19",650.000,"cc",28327.227,6,0.100,538.000,0.200,100.000,0.300,11.000,0.500,1.000,1.000,0,5.000,0
"05/07/08","20:14:25",654.000,"cc",28221.566,6,0.100,554.000,0.200,94.000,0.300,5.000,0.500,1.000,1.000,0,5.000,0
"05/07/08","20:14:31",684.000,"cc",28327.508,6,0.100,569.000,0.200,98.000,0.300,14.000,0.500,2.000,1.000,1.000,5.000,0
"05/07/08","20:14:37",621.000,"cc",28360.857,6,0.100,521.000,0.200,81.000,0.300,14.000,0.500,3.000,1.000,2.000,5.000,0
"05/07/08","20:14:43",628.000,"cc",28287.035,6,0.100,539.000,0.200,77.000,0.300,10.000,0.500,2.000,1.000,0,5.000,0
"05/07/08","20:14:49",588.000,"cc",28386.914,6,0.100,496.000,0.200,83.000,0.300,8.000,0.500,0,1.000,1.000,5.000,0
"05/07/08","20:14:55",587.000,"cc",28298.119,6,0.100,487.000,0.200,87.000,0.300,12.000,0.500,1.000,1.000,0,5.000,0
"05/07/08","20:15:01",590.000,"cc",28282.846,6,0.100,499.000,0.200,78.000,0.300,13.000,0.500,0,1.000,0,5.000,0
"05/07/08","20:15:07",662.000,"cc",28298.012,6,0.100,547.000,0.200,101.000,0.300,12.000,0.500,1.000,1.000,1.000,5.000,0
"05/07/08","20:15:13",604.000,"cc",28313.145,6,0.100,518.000,0.200,81.000,0.300,4.000,0.500,0,1.000,1.000,5.000,0
"05/07/08","20:15:19",612.000,"cc",28336.807,6,0.100,508.000,0.200,93.000,0.300,10.000,0.500,1.000,1.000,0,5.000,0
"05/07/08","20:15:25",626.000,"cc",28330.408,6,0.100,516.000,0.200,99.000,0.300,8.000,0.500,3.000,1.000,0,5.000,0
"05/07/08","20:15:31",576.000,"cc",28336.734,6,0.100,492.000,0.200,77.000,0.300,6.000,0.500,1.000,1.000,0,5.000,0
"05/07/08","20:15:37",628.000,"cc",28287.369,6,0.100,530.000,0.200,87.000,0.300,8.000,0.500,2.000,1.000,1.000,5.000,0
"05/07/08","20:15:43",585.000,"cc",28304.330,6,0.100,497.000,0.200,80.000,0.300,5.000,0.500,2.000,1.000,1.000,5.000,0
"05/07/08","20:15:49",600.000,"cc",28286.820,6,0.100,489.000,0.200,103.000,0.300,7.000,0.500,1.000,1.000,0,5.000,0
"05/07/08","20:15:55",641.000,"cc",28381.514,6,0.100,542.000,0.200,86.000,0.300,10.000,0.500,3.000,1.000,0,5.000,0
"05/07/08","20:16:01",632.000,"cc",28309.654,6,0.100,528.000,0.200,94.000,0.300,7.000,0.500,2.000,1.000,1.000,5.000,0
"05/07/08","20:16:07",609.000,"cc",28299.910,6,0.100,510.000,0.200,92.000,0.300,6.000,0.500,1.000,1.000,0,5.000,0
"05/07/08","20:16:13",580.000,"cc",28278.154,6,0.100,468.000,0.200,98.000,0.300,12.000,0.500,2.000,1.000,0,5.000,0
"05/07/08","20:16:19",602.000,"cc",28270.469,6,0.100,491.000,0.200,99.000,0.300,10.000,0.500,2.000,1.000,0,5.000,0
"05/07/08","20:16:25",569.000,"cc",28334.408,6,0.100,479.000,0.200,79.000,0.300,5.000,0.500,4.000,1.000,2.000,5.000,0
"05/07/08","20:16:31",644.000,"cc",28327.807,6,0.100,535.000,0.200,95.000,0.300,11.000,0.500,3.000,1.000,0,5.000,0
"05/07/08","20:16:37",569.000,"cc",28288.748,6,0.100,472.000,0.200,88.000,0.300,8.000,0.500,0,1.000,1.000,5.000,0
"05/07/08","20:16:43",654.000,"cc",28282.367,6,0.100,546.000,0.200,91.000,0.300,14.000,0.500,3.000,1.000,0,5.000,0
"05/07/08","20:16:49",611.000,"cc",28317.158,6,0.100,502.000,0.200,98.000,0.300,10.000,0.500,1.000,1.000,0,5.000,0
"05/07/08","20:16:55",623.000,"cc",28279.002,6,0.100,518.000,0.200,93.000,0.300,8.000,0.500,4.000,1.000,0,5.000,0
"05/07/08","20:17:01",587.000,"cc",28435.857,6,0.100,494.000,0.200,86.000,0.300,6.000,0.500,1.000,1.000,0,5.000,0
"05/07/08","20:17:07",573.000,"cc",28297.881,6,0.100,482.000,0.200,84.000,0.300,5.000,0.500,2.000,1.000,0,5.000,0
"05/07/08","20:17:13",605.000,"cc",28282.791,6,0.100,495.000,0.200,103.000,0.300,7.000,0.500,0,1.000,0,5.000,0
"05/07/08","20:17:19",619.000,"cc",28358.340,6,0.100,515.000,0.200,94.000,0.300,9.000,0.500,1.000,1.000,0,5.000,0
"05/07/08","20:17:25",579.000,"cc",28272.705,6,0.100,490.000,0.200,84.000,0.300,4.000,0.500,1.000,1.000,0,5.000,0
"05/07/08","20:17:31",595.000,"cc",28351.785,6,0.100,498.000,0.200,82.000,0.300,14.000,0.500,1.000,1.000,0,5.000,0
"05/07/08","20:17:37",602.000,"cc",28356.717,6,0.100,510.000,0.200,74.000,0.300,15.000,0.500,3.000,1.000,0,5.000,0
"05/07/08","20:17:43",609.000,"cc",28303.065,6,0.100,500.000,0.200,102.000,0.300,7.000,0.500,0,1.000,0,5.000,0
"05/07/08","20:17:49",615.000,"cc",28323.006,6,0.100,507.000,0.200,96.000,0.300,10.000,0.500,2.000,1.000,0,5.000,0
"05/07/08","20:17:55",605.000,"cc",28300.613,6,0.100,500.000,0.200,99.000,0.300,6.000,0.500,0,1.000,0,5.000,0
"05/07/08","20:18:01",629.000,"cc",28336.586,6,0.100,534.000,0.200,85.000,0.300,6.000,0.500,4.000,1.000,0,5.000,0
"05/07/08","20:18:07",621.000,"cc",28344.383,6,0.100,498.000,0.200,106.000,0.300,17.000,0.500,0,1.000,0,5.000,0
"05/07/08","20:18:13",581.000,"cc",28297.764,6,0.100,466.000,0.200,99.000,0.300,11.000,0.500,5.000,1.000,0,5.000,0
"05/07/08","20:18:19",665.000,"cc",28258.256,6,0.100,548.000,0.200,106.000,0.300,8.000,0.500,2.000,1.000,1.000,5.000,0
"05/07/08","20:18:25",681.000,"cc",28348.744,6,0.100,564.000,0.200,108.000,0.300,7.000,0.500,1.000,1.000,1.000,5.000,0
"05/07/08","20:18:31",626.000,"cc",28301.240,6,0.100,516.000,0.200,97.000,0.300,11.000,0.500,2.000,1.000,0,5.000,0
"05/07/08","20:18:37",672.000,"cc",28338.055,6,0.100,556.000,0.200,104.000,0.300,11.000,0.500,1.000,1.000,0,5.000,0
"05/07/08","20:18:43",611.000,"cc",28306.332,6,0.100,499.000,0.200,109.000,0.300,2.000,0.500,1.000,1.000,0,5.000,0
"05/07/08","20:18:49",588.000,"cc",28314.098,6,0.100,495.000,0.200,85.000,0.300,6.000,0.500,1.000,1.000,1.000,5.000,0
"05/07/08","20:18:55",568.000,"cc",28350.301,6,0.100,460.000,0.200,100.000,0.300,5.000,0.500,3.000,1.000,0,5.000,0
"05/07/08","20:19:01",583.000,"cc",28262.084,6,0.100,486.000,0.200,89.000,0.300,6.000,0.500,1.000,1.000,1.000,5.000,0
"05/07/08","20:19:07",643.000,"cc",28330.936,6,0.100,535.000,0.200,92.000,0.300,12.000,0.500,4.000,1.000,0,5.000,0
"05/07/08","20:19:13",629.000,"cc",28271.055,6,0.100,526.000,0.200,91.000,0.300,11.000,0.500,1.000,1.000,0,5.000,0
"05/07/08","20:19:19",646.000,"cc",28344.926,6,0.100,531.000,0.200,103.000,0.300,8.000,0.500,3.000,1.000,1.000,5.000,0